Flag for Netherlands Weather past 2 weeks in Apeldoorn, Netherlands

43 °F

Drizzle. Broken clouds.

Feels Like: 39 °F
Forecast: 37 / 47 °F
Wind: 7 mph from Northwest

Location: Deelen

Current Time: Nov 25, 2015 at 4:27:00 PM

Latest Report: Nov 25, 2015 at 3:55 PM

Visibility: N/A

Pressure: 29.68 "Hg

Humidity: 93%

Dew point: 41 °F

Location of ApeldoornLocation

Historic Weather in Apeldoorn — Graph


Apeldoorn temperature yesterday

Maximum temperature yesterday: 41 °F (at 11:25 PM)
Minimum temperature yesterday: 36 °F (at 1:55 AM)
Average temperature yesterday: 37 °F

Past Weeks' High & Low Weather Summary

High59 °F (Nov 10, 5:55 PM)100% (Nov 10, 3:25 PM)30.27 "Hg (Nov 10, 3:25 PM)
Low27 °F (Nov 23, 8:25 AM)55% (Nov 13, 1:55 PM)29.33 "Hg (Nov 21, 6:25 AM)
Average48 °F88%29.89 "Hg
* Reported Nov 10 2:25 PM — Nov 25 2:55 PM, Apeldoorn, Weather by CustomWeather, © 2015

Note: Actual official high and low records may vary slightly from our data, if they occured in-between our weather recording intervals... More about our weather records


Apeldoorn weather history for previous 24 hours

Time TempWeatherWind HumidityBarometerVisibility
2:55 PM
Wed, Nov 25
43 °FPartly sunny.6 mph93%29.65 "HgN/A
2:25 PM43 °FQuite cool.6 mph93%29.65 "HgN/A
1:55 PM45 °FPassing clouds.7 mph87%29.65 "HgN/A
1:25 PM45 °FPassing clouds.10 mph93%29.65 "HgN/A
12:55 PM43 °FPartly sunny.7 mph93%29.65 "HgN/A
12:25 PM45 °FLight rain. Broken clouds.8 mph93%29.65 "HgN/A
11:55 AM45 °FBroken clouds.9 mph93%29.65 "HgN/A
11:25 AM43 °FPartly sunny.8 mph100%29.65 "HgN/A
10:55 AM43 °FOvercast.8 mph93%29.65 "HgN/A
10:25 AM41 °FDrizzle. Broken clouds.7 mph100%29.65 "HgN/A
9:55 AM41 °FSprinkles. Broken clouds.3 mph100%29.65 "Hg4 mi
9:25 AM41 °FBroken clouds.6 mph100%29.65 "HgN/A
8:55 AM41 °FFog.3 mph100%29.65 "Hg6 mi
7:55 AM41 °FLight rain. Partly cloudy.8 mph100%29.65 "Hg4 mi
6:55 AM41 °FFog.6 mph100%29.62 "Hg4 mi
6:25 AM41 °FPartly cloudy.8 mph100%29.62 "Hg2 mi
5:55 AM41 °FFog.8 mph100%29.62 "Hg2 mi
4:55 AM43 °FFog.7 mph100%29.65 "Hg2 mi
4:25 AM43 °FSprinkles. Overcast.7 mph100%29.65 "Hg1 mi
3:55 AM43 °FPassing clouds.6 mph100%29.65 "Hg1 mi
3:25 AM43 °FFog.10 mph93%29.65 "Hg2 mi
2:55 AM41 °FFog.9 mph100%29.65 "Hg2 mi
2:25 AM41 °FFog.10 mph100%29.65 "Hg2 mi
1:55 AM41 °FDrizzle. Low clouds.9 mph100%29.65 "Hg2 mi
12:55 AM41 °FDrizzle. Low clouds.10 mph100%29.68 "Hg2 mi
12:25 AM41 °FRain showers. Passing clouds.9 mph100%29.68 "Hg1 mi
11:55 PM
Tue, Nov 24
41 °FFog.12 mph100%29.68 "Hg2 mi
11:25 PM41 °FFog.10 mph100%29.68 "Hg2 mi
10:55 PM39 °FFog.10 mph100%29.71 "Hg2 mi
10:25 PM39 °FDrizzle. Mostly cloudy.12 mph100%29.71 "Hg2 mi
9:55 PM39 °FDrizzle. Mostly cloudy.12 mph100%29.71 "Hg2 mi
9:25 PM39 °FFog.13 mph100%29.71 "Hg3 mi
8:55 PM39 °FFog.13 mph100%29.74 "Hg3 mi
8:25 PM39 °FDrizzle. Mostly cloudy.13 mph100%29.74 "Hg3 mi
7:55 PM39 °FDrizzle. Low clouds.12 mph93%29.74 "Hg3 mi
7:25 PM37 °FFog.13 mph100%29.74 "Hg5 mi
6:55 PM37 °FDrizzle. Mostly cloudy.13 mph100%29.77 "Hg3 mi
6:25 PM37 °FDrizzle. Mostly cloudy.10 mph100%29.77 "Hg3 mi
5:55 PM37 °FDrizzle. Mostly cloudy.12 mph93%29.77 "Hg4 mi
5:25 PM36 °FDrizzle. Mostly cloudy.13 mph100%29.80 "Hg5 mi
4:55 PM36 °FDrizzle. Mostly cloudy.14 mph100%29.80 "Hg2 mi
4:25 PM36 °FLight rain. Cloudy.14 mph100%29.80 "Hg4 mi
Weather by CustomWeather, © 2015

See weather overviewHow to use our weather pages